{"data":{"norad_id":54860,"epoch":"2026-05-25T02:19:06.004128Z","epoch_age_seconds":69767,"freshness":"FRESH","line1":"1 54860U 22177AS  26145.09659727  .00000168  00000+0  15626-4 0  9993","line2":"2 54860  43.0019  50.2768 0000901 255.2933 104.7819 15.27575224188770","mean_motion":15.27575224,"eccentricity":9.01e-5,"inclination_deg":43.0019,"raan_deg":50.2768,"arg_perigee_deg":255.2933,"mean_anomaly_deg":104.7819,"bstar":1.5626e-5,"rev_number":18877,"period_min":94.267043440867,"perigee_km":482.44520298329,"apogee_km":483.68159129485,"semimajor_km":6861.2003971391,"source":"CELESTRAK","updated_at":"2026-05-25T13:38:17.727626Z"}}